Terminal Aerodrome Forecast
Issued by NWS

Home | Current Version | Previous Version | Text Only | Print | Product List | Glossary On
Versions: 1 2 3 4 5 6 7 8 9 10 11 12 13
000
FTUS45 KLKN 200530
TAFWMC
TAF
KWMC 200530Z 2006/2106 22015G25KT P6SM FEW070 BKN200
     FM201100 25020G30KT 5SM -RA SCT030 OVC050
      TEMPO 2012/2014 27028G35KT 2SM RA BKN015 OVC030
     FM201400 26012G22KT P6SM -SHRA OVC050
     FM201800 27015G25KT P6SM BKN060
     FM210100 28008KT P6SM BKN070=

USA.gov is the U.S. government's official web portal to all federal, state and local government web resources and services.